^^
Saratoga-Weather Station Historical Data
Daily Summary for April 9, 2020 Units:  Metric    English   Both
Daily Weekly Monthly Yearly Custom
  High: Low: Average:
Temperature: 9.7 °C 5.1 °C 6.9 °C
Dew Point: 5.8 °C 3.8 °C 4.9 °C
Humidity: 94% 71% 87%
Wind Speed: 19.5km/h 0km/h 4.7km/h
Wind Gust: 24.1km/h - -
Wind- - West
Pressure: 1018.0 hPa 1010.8 hPa -
Precipitation: 2.0 mm    
Historical Graphs
 
 
Tabular Data for April 9, 2020
Time Temperature Dew Point Pressure Wind Wind Speed Wind Gust Humidity Rainfall Rate (Hourly) solar
00:04 6.7 °C 5.6 °C 1010.8 hPa WSW 3.2 km/h 8 km/h 93% 0.0 mm 0 W/m2
00:09 6.7 °C 5.6 °C 1010.8 hPa WNW 3.2 km/h 6.4 km/h 93% 0.0 mm 0 W/m2
00:14 6.7 °C 5.6 °C 1010.8 hPa West 3.2 km/h 9.7 km/h 93% 0.0 mm 0 W/m2
00:19 6.7 °C 5.8 °C 1010.8 hPa West 4.7 km/h 4.8 km/h 94% 0.0 mm 0 W/m2
00:24 6.7 °C 5.8 °C 1010.8 hPa WNW 3.2 km/h 6.4 km/h 94% 0.0 mm 0 W/m2
00:29 6.6 °C 5.7 °C 1010.8 hPa NW 3.2 km/h 8 km/h 94% 0.0 mm 0 W/m2
00:34 6.6 °C 5.7 °C 1010.8 hPa Calm     94% 0.0 mm 0 W/m2
00:39 6.6 °C 5.7 °C 1010.8 hPa South 3.2 km/h 8 km/h 94% 0.0 mm 0 W/m2
00:44 6.6 °C 5.7 °C 1010.8 hPa West 3.2 km/h 9.7 km/h 94% 0.0 mm 0 W/m2
00:49 6.6 °C 5.7 °C 1010.8 hPa West 1.4 km/h 8 km/h 94% 0.0 mm 0 W/m2
00:55 6.6 °C 5.7 °C 1010.8 hPa West 1.4 km/h 9.7 km/h 94% 0.0 mm 0 W/m2
01:00 6.6 °C 5.7 °C 1010.8 hPa SW 1.4 km/h 3.2 km/h 94% 0.0 mm 0 W/m2
01:05 6.6 °C 5.7 °C 1010.8 hPa WSW 1.4 km/h 9.7 km/h 94% 0.0 mm 0 W/m2
01:10 6.6 °C 5.7 °C 1010.8 hPa West 3.2 km/h 3.2 km/h 94% 0.0 mm 0 W/m2
01:15 6.5 °C 5.6 °C 1010.8 hPa SSW 4.7 km/h 9.7 km/h 94% 0.0 mm 0 W/m2
01:20 6.5 °C 5.6 °C 1010.8 hPa WNW 3.2 km/h 12.9 km/h 94% 0.0 mm 0 W/m2
01:25 6.5 °C 5.6 °C 1010.8 hPa NW 1.4 km/h 3.2 km/h 94% 0.0 mm 0 W/m2
01:30 6.5 °C 5.6 °C 1010.8 hPa WNW 4.7 km/h 8 km/h 94% 0.0 mm 0 W/m2
01:35 6.5 °C 5.6 °C 1011.2 hPa West 6.4 km/h 9.7 km/h 94% 0.0 mm 0 W/m2
01:40 6.5 °C 5.4 °C 1011.2 hPa WNW 6.4 km/h 6.4 km/h 93% 0.0 mm 0 W/m2
01:45 6.4 °C 5.4 °C 1011.2 hPa West 9.7 km/h 12.9 km/h 93% 0.0 mm 0 W/m2
01:50 6.4 °C 5.4 °C 1011.2 hPa WNW 3.2 km/h 6.4 km/h 93% 0.0 mm 0 W/m2
01:55 6.4 °C 5.4 °C 1011.2 hPa West 4.7 km/h 11.3 km/h 93% 0.0 mm 0 W/m2
02:00 6.5 °C 5.4 °C 1011.2 hPa WNW 1.4 km/h 11.3 km/h 93% 0.0 mm 0 W/m2
02:05 6.4 °C 5.4 °C 1011.2 hPa NW 3.2 km/h 4.8 km/h 93% 0.0 mm 0 W/m2
02:10 6.5 °C 5.4 °C 1011.2 hPa WSW 7.9 km/h 9.7 km/h 93% 0.0 mm 0 W/m2
02:15 6.4 °C 5.4 °C 1011.2 hPa NW 3.2 km/h 4.8 km/h 93% 0.0 mm 0 W/m2
02:20 6.5 °C 5.4 °C 1011.2 hPa WSW 4.7 km/h 16.1 km/h 93% 0.0 mm 0 W/m2
02:25 6.5 °C 5.4 °C 1011.2 hPa West 1.4 km/h 4.8 km/h 93% 0.0 mm 0 W/m2
02:30 6.5 °C 5.4 °C 1011.2 hPa SW 1.4 km/h 16.1 km/h 93% 0.0 mm 0 W/m2
02:36 6.5 °C 5.4 °C 1011.2 hPa WNW 3.2 km/h 11.3 km/h 93% 0.0 mm 0 W/m2
02:41 6.5 °C 5.4 °C 1011.2 hPa Calm   4.8 km/h 93% 0.0 mm 0 W/m2
02:46 6.5 °C 5.4 °C 1011.2 hPa SSE 1.4 km/h 9.7 km/h 93% 0.0 mm 0 W/m2
02:51 6.5 °C 5.4 °C 1011.2 hPa West 4.7 km/h 4.8 km/h 93% 0.0 mm 0 W/m2
02:56 6.5 °C 5.4 °C 1010.8 hPa West 1.4 km/h 4.8 km/h 93% 0.0 mm 0 W/m2
03:01 6.5 °C 5.4 °C 1011.2 hPa West 6.4 km/h 11.3 km/h 93% 0.0 mm 0 W/m2
03:06 6.6 °C 5.5 °C 1011.2 hPa West 3.2 km/h 9.7 km/h 93% 0.0 mm 0 W/m2
03:11 6.6 °C 5.5 °C 1011.2 hPa West 4.7 km/h 11.3 km/h 93% 0.0 mm 0 W/m2
03:16 6.6 °C 5.5 °C 1011.2 hPa West 4.7 km/h 6.4 km/h 93% 0.0 mm 0 W/m2
03:21 6.6 °C 5.5 °C 1011.2 hPa SW 4.7 km/h 12.9 km/h 93% 0.0 mm 0 W/m2
03:26 6.6 °C 5.5 °C 1010.8 hPa West 4.7 km/h 11.3 km/h 93% 0.0 mm 0 W/m2
03:31 6.6 °C 5.5 °C 1010.8 hPa WSW 4.7 km/h 11.3 km/h 93% 0.0 mm 0 W/m2
03:36 6.6 °C 5.5 °C 1011.2 hPa West 6.4 km/h 9.7 km/h 93% 0.0 mm 0 W/m2
03:41 6.6 °C 5.5 °C 1011.2 hPa West 1.4 km/h 14.5 km/h 93% 0.0 mm 0 W/m2
03:46 6.6 °C 5.5 °C 1011.2 hPa WNW 6.4 km/h 12.9 km/h 93% 0.0 mm 0 W/m2
03:51 6.6 °C 5.5 °C 1011.2 hPa SW 3.2 km/h 9.7 km/h 93% 0.0 mm 0 W/m2
03:56 6.6 °C 5.5 °C 1011.2 hPa WNW 4.7 km/h 17.7 km/h 93% 0.0 mm 0 W/m2
04:01 6.6 °C 5.5 °C 1011.2 hPa WSW 14.3 km/h 14.5 km/h 93% 0.0 mm 0 W/m2
04:06 6.6 °C 5.5 °C 1011.2 hPa West 11.1 km/h 12.9 km/h 93% 0.0 mm 0 W/m2
04:11 6.6 °C 5.5 °C 1011.2 hPa WSW 14.5 km/h 14.5 km/h 93% 0.0 mm 0 W/m2
04:16 6.6 °C 5.5 °C 1011.2 hPa West 13 km/h 12.9 km/h 93% 0.0 mm 0 W/m2
04:21 6.6 °C 5.4 °C 1011.2 hPa SW 3.2 km/h 6.4 km/h 92% 0.0 mm 0 W/m2
04:26 6.6 °C 5.4 °C 1011.2 hPa West 1.4 km/h 12.9 km/h 92% 0.0 mm 0 W/m2
04:31 6.6 °C 5.4 °C 1011.5 hPa West 3.2 km/h 4.8 km/h 92% 0.0 mm 0 W/m2
04:36 6.5 °C 5.3 °C 1011.5 hPa West 3.2 km/h 6.4 km/h 92% 0.0 mm 0 W/m2
04:41 6.5 °C 5.3 °C 1011.5 hPa NW 6.4 km/h 8 km/h 92% 0.0 mm 0 W/m2
04:46 6.5 °C 5.3 °C 1011.5 hPa West 4.7 km/h 4.8 km/h 92% 0.0 mm 0 W/m2
04:51 6.5 °C 5.3 °C 1011.5 hPa WNW 6.4 km/h 6.4 km/h 92% 0.0 mm 0 W/m2
04:56 6.4 °C 5.2 °C 1011.5 hPa WNW 3.2 km/h 6.4 km/h 92% 0.0 mm 0 W/m2
05:01 6.5 °C 5.3 °C 1011.5 hPa WNW 11.1 km/h 11.3 km/h 92% 0.0 mm 0 W/m2
05:06 6.5 °C 5.3 °C 1011.9 hPa WNW 3.2 km/h 6.4 km/h 92% 0.0 mm 0 W/m2
05:11 6.5 °C 5.3 °C 1011.9 hPa WNW 7.9 km/h 8 km/h 92% 0.0 mm 0 W/m2
05:16 6.4 °C 5.2 °C 1011.5 hPa West 4.7 km/h 9.7 km/h 92% 0.0 mm 0 W/m2
05:21 6.4 °C 5.2 °C 1011.5 hPa WNW 4.7 km/h 12.9 km/h 92% 0.0 mm 0 W/m2
05:26 6.4 °C 5.2 °C 1011.9 hPa West 3.2 km/h 6.4 km/h 92% 0.0 mm 0 W/m2
05:31 6.4 °C 5.2 °C 1011.9 hPa West 4.7 km/h 9.7 km/h 92% 0.0 mm 0 W/m2
05:36 6.4 °C 5.2 °C 1011.9 hPa SSW 3.2 km/h 8 km/h 92% 0.2 mm 0 W/m2
05:42 6.4 °C 5.2 °C 1011.9 hPa WSW 6.4 km/h 8 km/h 92% 0.2 mm 0 W/m2
05:47 6.4 °C 5.2 °C 1011.9 hPa West 9.7 km/h 19.3 km/h 92% 0.2 mm 0 W/m2
05:52 6.4 °C 5.2 °C 1011.9 hPa WNW 4.7 km/h 9.7 km/h 92% 0.2 mm 0 W/m2
05:57 6.4 °C 5.2 °C 1011.9 hPa WNW 4.7 km/h 14.5 km/h 92% 0.2 mm 0 W/m2
06:02 6.4 °C 5.2 °C 1012.2 hPa West 3.2 km/h 4.8 km/h 92% 0.2 mm 0 W/m2
06:07 6.4 °C 5.2 °C 1012.2 hPa West 4.7 km/h 11.3 km/h 92% 0.2 mm 0 W/m2
06:12 6.4 °C 5.2 °C 1012.2 hPa West 11.1 km/h 16.1 km/h 92% 0.2 mm 0 W/m2
06:17 6.4 °C 5.2 °C 1012.2 hPa WNW 4.7 km/h 4.8 km/h 92% 0.2 mm 0 W/m2
06:22 6.4 °C 5.2 °C 1012.2 hPa West 16.1 km/h 16.1 km/h 92% 0.2 mm 0 W/m2
06:27 6.4 °C 5.2 °C 1012.2 hPa NW 3.2 km/h 6.4 km/h 92% 0.2 mm 0 W/m2
06:32 6.4 °C 5.2 °C 1012.2 hPa WSW 4.7 km/h 6.4 km/h 92% 0.2 mm 0 W/m2
06:37 6.4 °C 5.2 °C 1012.2 hPa WNW 6.4 km/h 12.9 km/h 92% 0.0 mm 0 W/m2
06:42 6.4 °C 5.2 °C 1012.5 hPa WNW 4.7 km/h 14.5 km/h 92% 0.0 mm 0 W/m2
06:47 6.4 °C 5.2 °C 1012.5 hPa WNW 3.2 km/h 9.7 km/h 92% 0.0 mm 0 W/m2
06:52 6.4 °C 5 °C 1012.5 hPa WNW 7.9 km/h 9.7 km/h 91% 0.0 mm 0 W/m2
06:57 6.4 °C 5.2 °C 1012.5 hPa West 9.7 km/h 9.7 km/h 92% 0.0 mm 0 W/m2
07:02 6.4 °C 5 °C 1012.5 hPa West 1.4 km/h 4.8 km/h 91% 0.0 mm 0 W/m2
07:07 6.4 °C 5 °C 1012.5 hPa WSW 4.7 km/h 8 km/h 91% 0.0 mm 5 W/m2
07:13 6.4 °C 5 °C 1012.5 hPa WNW 4.7 km/h 4.8 km/h 91% 0.0 mm 5 W/m2
07:18 6.4 °C 5 °C 1012.5 hPa West 3.2 km/h 3.2 km/h 91% 0.0 mm 7 W/m2
07:23 6.4 °C 5 °C 1012.9 hPa WSW 4.7 km/h 4.8 km/h 91% 0.0 mm 11 W/m2
07:28 6.3 °C 4.9 °C 1012.9 hPa WSW 3.2 km/h 4.8 km/h 91% 0.2 mm 0 W/m2
07:33 6.3 °C 5.1 °C 1012.9 hPa West 4.7 km/h 14.5 km/h 92% 0.2 mm 5 W/m2
07:38 6.3 °C 5.1 °C 1012.9 hPa WSW 7.9 km/h 11.3 km/h 92% 0.2 mm 11 W/m2
07:43 6.2 °C 5 °C 1012.9 hPa West 6.4 km/h 12.9 km/h 92% 0.2 mm 11 W/m2
07:48 6.2 °C 5 °C 1012.9 hPa West 3.2 km/h 11.3 km/h 92% 0.5 mm 11 W/m2
07:53 6.1 °C 4.9 °C 1012.9 hPa WNW 4.7 km/h 12.9 km/h 92% 0.5 mm 11 W/m2
07:58 6 °C 4.8 °C 1012.9 hPa WNW 3.2 km/h 6.4 km/h 92% 0.5 mm 18 W/m2
08:03 6 °C 4.8 °C 1013.2 hPa WSW 4.7 km/h 9.7 km/h 92% 0.5 mm 42 W/m2
08:08 5.9 °C 4.7 °C 1013.2 hPa West 3.2 km/h 6.4 km/h 92% 0.5 mm 32 W/m2
08:13 5.9 °C 4.7 °C 1013.2 hPa Calm   4.8 km/h 92% 0.5 mm 84 W/m2
08:18 5.9 °C 4.7 °C 1013.2 hPa WNW 4.7 km/h 4.8 km/h 92% 0.5 mm 26 W/m2
08:23 5.9 °C 4.7 °C 1013.5 hPa WNW 4.7 km/h 4.8 km/h 92% 0.5 mm 26 W/m2
08:28 5.9 °C 4.9 °C 1013.5 hPa SW 3.2 km/h 6.4 km/h 93% 0.2 mm 32 W/m2
08:33 5.9 °C 4.7 °C 1013.5 hPa West 4.7 km/h 16.1 km/h 92% 0.2 mm 51 W/m2
08:38 5.9 °C 4.7 °C 1013.5 hPa West 1.4 km/h 4.8 km/h 92% 0.2 mm 40 W/m2
08:43 5.9 °C 4.7 °C 1013.5 hPa West 3.2 km/h 16.1 km/h 92% 0.2 mm 46 W/m2
08:48 5.9 °C 4.7 °C 1013.5 hPa WNW 4.7 km/h 9.7 km/h 92% 0.0 mm 32 W/m2
08:53 6 °C 4.8 °C 1013.9 hPa West 3.2 km/h 8 km/h 92% 0.0 mm 37 W/m2
08:58 6 °C 4.8 °C 1013.9 hPa West 6.4 km/h 9.7 km/h 92% 0.0 mm 39 W/m2
09:03 6.1 °C 4.9 °C 1013.9 hPa WNW 6.4 km/h 12.9 km/h 92% 0.0 mm 58 W/m2
09:08 6.1 °C 4.7 °C 1013.9 hPa WNW 7.9 km/h 16.1 km/h 91% 0.0 mm 62 W/m2
09:13 6.1 °C 4.7 °C 1013.9 hPa SW 11.1 km/h 12.9 km/h 91% 0.0 mm 98 W/m2
09:18 6.1 °C 4.7 °C 1013.9 hPa West 3.2 km/h 4.8 km/h 91% 0.0 mm 142 W/m2
09:23 6.2 °C 4.8 °C 1014.2 hPa WNW 3.2 km/h 9.7 km/h 91% 0.0 mm 102 W/m2
09:28 6.3 °C 4.9 °C 1014.2 hPa WSW 6.4 km/h 11.3 km/h 91% 0.0 mm 54 W/m2
09:33 6.3 °C 4.9 °C 1014.2 hPa West 3.2 km/h 11.3 km/h 91% 0.0 mm 206 W/m2
09:38 6.3 °C 4.9 °C 1014.2 hPa WSW 6.4 km/h 16.1 km/h 91% 0.0 mm 134 W/m2
09:43 6.4 °C 4.9 °C 1014.6 hPa WNW 4.7 km/h 11.3 km/h 90% 0.0 mm 142 W/m2
09:48 6.4 °C 4.9 °C 1014.6 hPa West 9.7 km/h 16.1 km/h 90% 0.0 mm 79 W/m2
09:53 6.4 °C 4.7 °C 1014.6 hPa WNW 6.4 km/h 14.5 km/h 89% 0.0 mm 100 W/m2
09:58 6.4 °C 4.9 °C 1014.6 hPa West 4.7 km/h 9.7 km/h 90% 0.0 mm 69 W/m2
10:03 6.5 °C 4.8 °C 1014.6 hPa West 4.7 km/h 11.3 km/h 89% 0.0 mm 70 W/m2
10:08 6.6 °C 4.9 °C 1014.6 hPa WSW 4.7 km/h 6.4 km/h 89% 0.0 mm 171 W/m2
10:13 6.7 °C 5.2 °C 1014.6 hPa West 4.7 km/h 11.3 km/h 90% 0.0 mm 455 W/m2
10:18 6.9 °C 5.1 °C 1014.6 hPa West 11.1 km/h 19.3 km/h 88% 0.0 mm 279 W/m2
10:23 7.1 °C 5.2 °C 1014.6 hPa WNW 3.2 km/h 9.7 km/h 88% 0.0 mm 561 W/m2
10:28 7.2 °C 5 °C 1014.6 hPa WNW 6.4 km/h 19.3 km/h 86% 0.0 mm 63 W/m2
10:33 7.2 °C 5 °C 1014.9 hPa West 6.4 km/h 11.3 km/h 86% 0.0 mm 95 W/m2
10:38 7.1 °C 5.1 °C 1014.9 hPa West 6.4 km/h 14.5 km/h 87% 0.0 mm 93 W/m2
10:43 7 °C 5 °C 1014.9 hPa West 4.7 km/h 16.1 km/h 87% 0.2 mm 422 W/m2
10:48 7 °C 5.1 °C 1014.9 hPa West 6.4 km/h 11.3 km/h 88% 0.2 mm 176 W/m2
10:53 7 °C 5.1 °C 1015.2 hPa West 4.7 km/h 11.3 km/h 88% 0.2 mm 202 W/m2
10:58 7.1 °C 5.2 °C 1015.2 hPa West 3.2 km/h 3.2 km/h 88% 0.2 mm 186 W/m2
11:03 7.1 °C 5.2 °C 1015.2 hPa WNW 1.4 km/h 6.4 km/h 88% 0.2 mm 415 W/m2
11:08 7.3 °C 5.4 °C 1015.2 hPa WNW 3.2 km/h 6.4 km/h 88% 0.2 mm 127 W/m2
11:13 7.2 °C 5.2 °C 1015.2 hPa West 4.7 km/h 12.9 km/h 87% 0.2 mm 86 W/m2
11:18 7.1 °C 4.9 °C 1015.2 hPa West 6.4 km/h 6.4 km/h 86% 0.2 mm 137 W/m2
11:23 7.1 °C 5.1 °C 1015.2 hPa WSW 7.9 km/h 11.3 km/h 87% 0.2 mm 107 W/m2
11:29 7.1 °C 4.9 °C 1015.2 hPa WNW 4.7 km/h 6.4 km/h 86% 0.2 mm 127 W/m2
11:34 7.2 °C 5.2 °C 1015.2 hPa WNW 3.2 km/h 6.4 km/h 87% 0.2 mm 204 W/m2
11:39 7.3 °C 5.1 °C 1015.2 hPa WNW 4.7 km/h 17.7 km/h 86% 0.2 mm 274 W/m2
11:44 7.4 °C 5 °C 1015.2 hPa NW 3.2 km/h 14.5 km/h 85% 0.0 mm 90 W/m2
11:49 7.3 °C 4.9 °C 1015.2 hPa West 4.7 km/h 17.7 km/h 85% 0.0 mm 121 W/m2
11:54 7.2 °C 4.7 °C 1015.2 hPa WNW 6.4 km/h 11.3 km/h 84% 0.0 mm 102 W/m2
11:59 7.2 °C 4.7 °C 1015.6 hPa West 3.2 km/h 11.3 km/h 84% 0.0 mm 308 W/m2
12:04 7.4 °C 4.9 °C 1015.2 hPa WNW 3.2 km/h 11.3 km/h 84% 0.0 mm 624 W/m2
12:09 7.8 °C 5.1 °C 1015.6 hPa NNW 9.7 km/h 14.5 km/h 83% 0.0 mm 668 W/m2
12:14 8.1 °C 5 °C 1015.2 hPa West 4.7 km/h 16.1 km/h 81% 0.0 mm 733 W/m2
12:19 8.2 °C 4.8 °C 1015.2 hPa WNW 4.7 km/h 16.1 km/h 79% 0.0 mm 733 W/m2
12:24 8.1 °C 4.7 °C 1015.6 hPa NW 4.7 km/h 12.9 km/h 79% 0.0 mm 230 W/m2
12:29 8.1 °C 4.9 °C 1015.6 hPa NW 19.5 km/h 22.5 km/h 80% 0.0 mm 128 W/m2
12:34 7.6 °C 4.5 °C 1015.9 hPa West 4.7 km/h 12.9 km/h 81% 0.0 mm 102 W/m2
12:39 7.2 °C 4.7 °C 1015.9 hPa WNW 7.9 km/h 14.5 km/h 84% 0.0 mm 192 W/m2
12:44 6.9 °C 4.6 °C 1015.6 hPa NW 3.2 km/h 11.3 km/h 85% 0.0 mm 417 W/m2
12:49 7.1 °C 4.9 °C 1015.6 hPa WNW 4.7 km/h 9.7 km/h 86% 0.0 mm 520 W/m2
12:54 7.4 °C 5.4 °C 1015.6 hPa NNW 3.2 km/h 11.3 km/h 87% 0.0 mm 529 W/m2
12:59 7.8 °C 5.6 °C 1015.6 hPa SW 6.4 km/h 16.1 km/h 86% 0.0 mm 680 W/m2
13:04 8.1 °C 5.7 °C 1015.6 hPa West 11.1 km/h 12.9 km/h 85% 0.0 mm 747 W/m2
13:09 8.2 °C 5.3 °C 1015.6 hPa West 4.7 km/h 14.5 km/h 82% 0.0 mm 120 W/m2
13:14 8.2 °C 4.6 °C 1015.6 hPa NW 9.7 km/h 17.7 km/h 78% 0.0 mm 120 W/m2
13:19 8.1 °C 4.1 °C 1015.2 hPa West 17.7 km/h 22.5 km/h 76% 0.0 mm 128 W/m2
13:24 8 °C 4.2 °C 1015.2 hPa West 9.7 km/h 14.5 km/h 77% 0.0 mm 118 W/m2
13:29 8 °C 4.4 °C 1015.2 hPa NW 4.7 km/h 22.5 km/h 78% 0.0 mm 376 W/m2
13:34 8.2 °C 4.4 °C 1015.2 hPa West 6.4 km/h 14.5 km/h 77% 0.0 mm 410 W/m2
13:40 8.5 °C 4.5 °C 1015.2 hPa West 6.4 km/h 17.7 km/h 76% 0.0 mm 199 W/m2
13:45 8.6 °C 4 °C 1015.2 hPa WNW 11.1 km/h 19.3 km/h 73% 0.0 mm 97 W/m2
13:50 8.5 °C 3.9 °C 1015.2 hPa West 11.1 km/h 16.1 km/h 73% 0.0 mm 202 W/m2
13:55 8.7 °C 4.3 °C 1015.2 hPa NW 9.7 km/h 16.1 km/h 74% 0.0 mm 197 W/m2
14:00 8.7 °C 4.3 °C 1015.2 hPa WNW 6.4 km/h 6.4 km/h 74% 0.0 mm 183 W/m2
14:05 8.7 °C 4.3 °C 1015.2 hPa West 6.4 km/h 11.3 km/h 74% 0.0 mm 404 W/m2
14:10 8.7 °C 4.3 °C 1015.2 hPa West 6.4 km/h 16.1 km/h 74% 0.0 mm 471 W/m2
14:15 8.9 °C 4.9 °C 1015.2 hPa WNW 6.4 km/h 11.3 km/h 76% 0.0 mm 504 W/m2
14:20 8.9 °C 4.5 °C 1015.2 hPa West 4.7 km/h 14.5 km/h 74% 0.0 mm 181 W/m2
14:25 8.8 °C 4.6 °C 1015.2 hPa WNW 11.1 km/h 11.3 km/h 75% 0.0 mm 179 W/m2
14:30 8.9 °C 5.1 °C 1015.6 hPa West 3.2 km/h 9.7 km/h 77% 0.0 mm 582 W/m2
14:35 9.1 °C 5.5 °C 1015.6 hPa WNW 11.1 km/h 12.9 km/h 78% 0.0 mm 190 W/m2
14:40 9.1 °C 5.3 °C 1015.6 hPa West 4.7 km/h 11.3 km/h 77% 0.0 mm 135 W/m2
14:45 9.1 °C 5.1 °C 1015.2 hPa Calm   6.4 km/h 76% 0.0 mm 536 W/m2
14:50 9.2 °C 5.4 °C 1015.2 hPa South 1.4 km/h 6.4 km/h 77% 0.0 mm 211 W/m2
14:56 9.3 °C 5.5 °C 1015.2 hPa Calm   6.4 km/h 77% 0.0 mm 181 W/m2
15:01 9.4 °C 5.4 °C 1015.6 hPa West 3.2 km/h 6.4 km/h 76% 0.0 mm 160 W/m2
15:06 9.3 °C 5.5 °C 1015.2 hPa WNW 3.2 km/h 6.4 km/h 77% 0.0 mm 102 W/m2
15:11 9.2 °C 5.6 °C 1015.6 hPa WNW 3.2 km/h 11.3 km/h 78% 0.0 mm 53 W/m2
15:16 9 °C 5.6 °C 1015.6 hPa NW 6.4 km/h 9.7 km/h 79% 0.2 mm 478 W/m2
15:21 9.1 °C 5.5 °C 1015.6 hPa SW 6.4 km/h 9.7 km/h 78% 0.2 mm 392 W/m2
15:26 9.2 °C 5 °C 1015.6 hPa SSW 7.9 km/h 16.1 km/h 75% 0.2 mm 373 W/m2
15:31 9.3 °C 4.9 °C 1015.6 hPa WNW 3.2 km/h 11.3 km/h 74% 0.2 mm 359 W/m2
15:36 9.6 °C 5 °C 1015.6 hPa WNW 6.4 km/h 12.9 km/h 73% 0.2 mm 359 W/m2
15:41 9.7 °C 5.1 °C 1015.6 hPa NW 4.7 km/h 11.3 km/h 73% 0.2 mm 371 W/m2
15:46 9.7 °C 4.7 °C 1015.6 hPa WNW 6.4 km/h 16.1 km/h 71% 0.2 mm 100 W/m2
15:51 9.5 °C 4.7 °C 1015.9 hPa WSW 7.9 km/h 11.3 km/h 72% 0.2 mm 137 W/m2
15:56 9.4 °C 4.8 °C 1015.9 hPa WSW 4.7 km/h 12.9 km/h 73% 0.2 mm 151 W/m2
16:01 9.3 °C 5.1 °C 1015.6 hPa Calm   1.6 km/h 75% 0.2 mm 83 W/m2
16:06 9.3 °C 5.1 °C 1015.9 hPa West 4.7 km/h 9.7 km/h 75% 0.2 mm 42 W/m2
16:11 9.3 °C 5.1 °C 1015.9 hPa WNW 7.9 km/h 9.7 km/h 75% 0.2 mm 32 W/m2
16:16 8.9 °C 5.1 °C 1016.3 hPa WSW 13 km/h 24.1 km/h 77% 0.5 mm 116 W/m2
16:21 8.2 °C 5.1 °C 1016.3 hPa NW 14.3 km/h 14.5 km/h 81% 0.5 mm 323 W/m2
16:26 8.1 °C 5.2 °C 1015.9 hPa NW 6.4 km/h 24.1 km/h 82% 0.5 mm 313 W/m2
16:31 8.2 °C 5.5 °C 1016.3 hPa WNW 9.7 km/h 9.7 km/h 83% 0.5 mm 232 W/m2
16:36 8.3 °C 5.8 °C 1016.3 hPa NW 1.4 km/h 4.8 km/h 84% 0.5 mm 211 W/m2
16:41 8.4 °C 5.5 °C 1016.3 hPa WSW 6.4 km/h 17.7 km/h 82% 0.5 mm 197 W/m2
16:46 8.5 °C 4.9 °C 1016.3 hPa West 11.1 km/h 19.3 km/h 78% 0.5 mm 188 W/m2
16:51 8.6 °C 5 °C 1016.3 hPa WNW 6.4 km/h 11.3 km/h 78% 0.5 mm 174 W/m2
16:56 8.6 °C 5 °C 1016.3 hPa West 11.1 km/h 17.7 km/h 78% 0.5 mm 151 W/m2
17:01 8.5 °C 4.9 °C 1016.3 hPa WNW 13 km/h 12.9 km/h 78% 0.5 mm 146 W/m2
17:06 8.6 °C 5 °C 1016.3 hPa NNW 1.4 km/h 8 km/h 78% 0.5 mm 120 W/m2
17:11 8.6 °C 4.8 °C 1016.3 hPa WSW 4.7 km/h 6.4 km/h 77% 0.5 mm 118 W/m2
17:16 8.6 °C 4.8 °C 1016.3 hPa NNW 4.7 km/h 11.3 km/h 77% 0.2 mm 86 W/m2
17:21 8.5 °C 4.9 °C 1016.3 hPa WNW 1.4 km/h 3.2 km/h 78% 0.0 mm 58 W/m2
17:26 8.4 °C 4.8 °C 1016.3 hPa WSW 1.4 km/h 4.8 km/h 78% 0.0 mm 30 W/m2
17:31 8.3 °C 4.9 °C 1016.3 hPa Calm   3.2 km/h 79% 0.0 mm 25 W/m2
17:36 8.2 °C 4.8 °C 1016.3 hPa NW 4.7 km/h 14.5 km/h 79% 0.0 mm 23 W/m2
17:41 8.1 °C 4.9 °C 1016.6 hPa WNW 3.2 km/h 4.8 km/h 80% 0.0 mm 30 W/m2
17:46 8 °C 4.9 °C 1016.6 hPa NW 3.2 km/h 14.5 km/h 81% 0.0 mm 23 W/m2
17:51 7.9 °C 4.7 °C 1016.9 hPa Calm   3.2 km/h 80% 0.0 mm 23 W/m2
17:56 7.9 °C 4.7 °C 1016.9 hPa Calm   11.3 km/h 80% 0.0 mm 18 W/m2
18:01 7.8 °C 4.7 °C 1016.9 hPa NW 3.2 km/h 4.8 km/h 81% 0.0 mm 16 W/m2
18:06 7.7 °C 4.6 °C 1017.3 hPa West 1.4 km/h 6.4 km/h 81% 0.0 mm 14 W/m2
18:11 7.7 °C 4.6 °C 1017.3 hPa WNW 4.7 km/h 8 km/h 81% 0.0 mm 11 W/m2
18:17 7.7 °C 4.6 °C 1017.3 hPa Calm   3.2 km/h 81% 0.0 mm 9 W/m2
18:22 7.7 °C 4.6 °C 1017.3 hPa WNW 1.4 km/h 3.2 km/h 81% 0.0 mm 5 W/m2
18:27 7.7 °C 4.6 °C 1017.3 hPa West 3.2 km/h 6.4 km/h 81% 0.0 mm 0 W/m2
18:32 7.6 °C 4.7 °C 1017.6 hPa NW 7.9 km/h 14.5 km/h 82% 0.0 mm 0 W/m2
18:37 7.3 °C 4.6 °C 1017.6 hPa WSW 13 km/h 16.1 km/h 83% 0.2 mm 0 W/m2
18:42 6.9 °C 4.2 °C 1017.6 hPa WSW 9.7 km/h 12.9 km/h 83% 0.2 mm 0 W/m2
18:47 6.7 °C 4.4 °C 1017.6 hPa WNW 3.2 km/h 6.4 km/h 85% 0.5 mm 0 W/m2
18:52 6.5 °C 4.2 °C 1017.6 hPa WSW 6.4 km/h 6.4 km/h 85% 0.5 mm 0 W/m2
18:57 6.3 °C 4.1 °C 1017.6 hPa WSW 4.7 km/h 9.7 km/h 86% 0.5 mm 0 W/m2
19:02 6.3 °C 4.1 °C 1018.0 hPa West 1.4 km/h 4.8 km/h 86% 0.5 mm 0 W/m2
19:07 6.2 °C 4.2 °C 1018.0 hPa Calm   9.7 km/h 87% 0.5 mm 0 W/m2
19:12 6.1 °C 4.1 °C 1018.0 hPa WSW 3.2 km/h 3.2 km/h 87% 0.5 mm 0 W/m2
19:17 5.9 °C 4.1 °C 1018.0 hPa West 3.2 km/h 4.8 km/h 88% 0.5 mm 0 W/m2
19:22 5.8 °C 4.1 °C 1017.6 hPa SSE 3.2 km/h 8 km/h 89% 0.5 mm 0 W/m2
19:27 5.7 °C 4 °C 1018.0 hPa Calm   1.6 km/h 89% 0.5 mm 0 W/m2
19:32 5.7 °C 4 °C 1018.0 hPa Calm   8 km/h 89% 0.5 mm 0 W/m2
19:37 5.6 °C 4.1 °C 1018.0 hPa South 3.2 km/h 3.2 km/h 90% 0.2 mm 0 W/m2
19:42 5.6 °C 4.1 °C 1018.0 hPa Calm   1.6 km/h 90% 0.2 mm 0 W/m2
19:47 5.5 °C 4 °C 1018.0 hPa South 1.4 km/h 1.6 km/h 90% 0.0 mm 0 W/m2
19:52 5.4 °C 3.9 °C 1018.0 hPa Calm   1.6 km/h 90% 0.0 mm 0 W/m2
19:57 5.3 °C 3.8 °C 1018.0 hPa Calm   1.6 km/h 90% 0.0 mm 0 W/m2
20:02 5.2 °C 3.9 °C 1018.0 hPa South 1.4 km/h 1.6 km/h 91% 0.0 mm 0 W/m2
20:07 5.2 °C 3.9 °C 1018.0 hPa South 1.4 km/h 1.6 km/h 91% 0.0 mm 0 W/m2
20:12 5.2 °C 3.9 °C 1018.0 hPa Calm   1.6 km/h 91% 0.0 mm 0 W/m2
20:17 5.2 °C 3.9 °C 1018.0 hPa East 3.2 km/h 4.8 km/h 91% 0.0 mm 0 W/m2
20:22 5.2 °C 3.9 °C 1018.0 hPa Calm   1.6 km/h 91% 0.0 mm 0 W/m2
20:27 5.1 °C 3.8 °C 1018.0 hPa SSE 1.4 km/h 3.2 km/h 91% 0.0 mm 0 W/m2
20:32 5.1 °C 3.8 °C 1017.6 hPa ESE 1.4 km/h 1.6 km/h 91% 0.0 mm 0 W/m2
20:37 5.1 °C 3.9 °C 1018.0 hPa ENE 1.4 km/h 4.8 km/h 92% 0.0 mm 0 W/m2
20:43 5.1 °C 3.9 °C 1018.0 hPa Calm   3.2 km/h 92% 0.0 mm 0 W/m2
20:48 5.2 °C 4 °C 1018.0 hPa Calm   1.6 km/h 92% 0.0 mm 0 W/m2
20:53 5.2 °C 4 °C 1018.0 hPa SW 3.2 km/h 3.2 km/h 92% 0.0 mm 0 W/m2
20:58 5.3 °C 4.1 °C 1018.0 hPa SE 1.4 km/h 1.6 km/h 92% 0.0 mm 0 W/m2
21:03 5.3 °C 4.1 °C 1017.6 hPa SE 3.2 km/h 3.2 km/h 92% 0.0 mm 0 W/m2
21:08 5.4 °C 4 °C 1017.6 hPa East 3.2 km/h 6.4 km/h 91% 0.0 mm 0 W/m2
21:13 5.5 °C 4.1 °C 1017.6 hPa WNW 1.4 km/h 1.6 km/h 91% 0.0 mm 0 W/m2
21:18 5.5 °C 4.1 °C 1018.0 hPa WNW 3.2 km/h 4.8 km/h 91% 0.0 mm 0 W/m2
21:23 5.6 °C 4.2 °C 1017.6 hPa Calm   4.8 km/h 91% 0.0 mm 0 W/m2
21:28 5.7 °C 4.2 °C 1017.6 hPa West 3.2 km/h 3.2 km/h 90% 0.0 mm 0 W/m2
21:33 5.7 °C 4.2 °C 1017.6 hPa Calm   3.2 km/h 90% 0.0 mm 0 W/m2
21:38 5.8 °C 4.1 °C 1017.6 hPa WNW 1.4 km/h 6.4 km/h 89% 0.0 mm 0 W/m2
21:43 6 °C 4.3 °C 1018.0 hPa NNW 1.4 km/h 3.2 km/h 89% 0.0 mm 0 W/m2
21:48 6.1 °C 4.3 °C 1017.6 hPa Calm   3.2 km/h 88% 0.0 mm 0 W/m2
21:53 6 °C 4.2 °C 1017.6 hPa WNW 4.7 km/h 4.8 km/h 88% 0.0 mm 0 W/m2
21:58 6.1 °C 4.3 °C 1017.6 hPa ESE 1.4 km/h 1.6 km/h 88% 0.0 mm 0 W/m2
22:03 6.1 °C 4.3 °C 1017.6 hPa NE 3.2 km/h 3.2 km/h 88% 0.0 mm 0 W/m2
22:08 6.1 °C 4.3 °C 1018.0 hPa Calm   3.2 km/h 88% 0.0 mm 0 W/m2
22:13 6.1 °C 4.3 °C 1018.0 hPa NW 1.4 km/h 4.8 km/h 88% 0.0 mm 0 W/m2
22:18 6.1 °C 4.3 °C 1018.0 hPa West 4.7 km/h 4.8 km/h 88% 0.0 mm 0 W/m2
22:23 6.1 °C 4.3 °C 1017.6 hPa WNW 1.4 km/h 4.8 km/h 88% 0.0 mm 0 W/m2
22:28 6.1 °C 4.3 °C 1017.6 hPa NE 1.4 km/h 3.2 km/h 88% 0.0 mm 0 W/m2
22:33 6.1 °C 4.3 °C 1018.0 hPa South 3.2 km/h 6.4 km/h 88% 0.0 mm 0 W/m2
22:38 6.1 °C 4.3 °C 1018.0 hPa NNW 3.2 km/h 3.2 km/h 88% 0.0 mm 0 W/m2
22:43 6.1 °C 4.3 °C 1017.6 hPa WNW 3.2 km/h 3.2 km/h 88% 0.0 mm 0 W/m2
22:48 6.1 °C 4.3 °C 1017.6 hPa Calm   1.6 km/h 88% 0.0 mm 0 W/m2
22:53 6.1 °C 4.3 °C 1017.3 hPa NW 1.4 km/h 1.6 km/h 88% 0.0 mm 0 W/m2
22:58 6.1 °C 4.4 °C 1017.3 hPa West 4.7 km/h 6.4 km/h 89% 0.0 mm 0 W/m2
23:03 6.1 °C 4.4 °C 1017.3 hPa WSW 7.9 km/h 8 km/h 89% 0.0 mm 0 W/m2
23:08 6.2 °C 4.5 °C 1017.3 hPa WNW 3.2 km/h 4.8 km/h 89% 0.0 mm 0 W/m2
23:13 6.2 °C 4.5 °C 1017.3 hPa WNW 7.9 km/h 9.7 km/h 89% 0.0 mm 0 W/m2
23:18 6.2 °C 4.5 °C 1017.3 hPa North 3.2 km/h 3.2 km/h 89% 0.0 mm 0 W/m2
23:23 6.3 °C 4.6 °C 1016.9 hPa SW 7.9 km/h 9.7 km/h 89% 0.0 mm 0 W/m2
23:28 6.3 °C 4.6 °C 1016.9 hPa NNW 7.9 km/h 8 km/h 89% 0.0 mm 0 W/m2
23:33 6.3 °C 4.6 °C 1016.9 hPa SSW 4.7 km/h 6.4 km/h 89% 0.0 mm 0 W/m2
23:38 6.3 °C 4.6 °C 1016.9 hPa WSW 3.2 km/h 4.8 km/h 89% 0.0 mm 0 W/m2
23:43 6.3 °C 4.6 °C 1016.6 hPa NNE 3.2 km/h 3.2 km/h 89% 0.0 mm 0 W/m2
23:49 6.3 °C 4.6 °C 1016.9 hPa NW 3.2 km/h 9.7 km/h 89% 0.0 mm 0 W/m2
23:54 6.3 °C 4.6 °C 1016.9 hPa West 1.4 km/h 6.4 km/h 89% 0.0 mm 0 W/m2
23:59 6.3 °C 4.6 °C 1016.9 hPa SW 11.1 km/h 12.9 km/h 89% 0.0 mm 0 W/m2
Juneau County Weather
Compliments of Weather Underground - 2 mb